Home   Weather   Charleston   Past weeks

Flag for USA Past Weather in Charleston, West Virginia, USA — Yesterday and Last 2 Weeks

Now
62 °F

Low clouds.


Feels Like: 62 °F
Forecast: 55 / 72 °F
Wind: 3 mph from North

Location: Yeager Airport

Current Time: Apr 25, 2017 at 2:53:17 pm

Latest Report: Apr 25, 2017 at 1:54 pm


Visibility: 10 mi

Pressure: 29.77 "Hg

Humidity: 78%

Dew Point: 55 °F

Location of CharlestonLocation

Past Weather in Charleston — Graph

°F

Charleston Temperature Yesterday

Maximum temperature yesterday: 62 °F (at 2:54 pm)
Minimum temperature yesterday: 51 °F (at 3:54 am)
Average temperature yesterday: 57 °F

High & Low Weather Summary for the Past Weeks

 TemperatureHumidityPressure
High83 °F (Apr 10, 4:54 pm)96% (Apr 12, 1:54 am)30.36 "Hg (Apr 12, 1:54 am)
Low42 °F (Apr 13, 6:54 am)17% (Apr 10, 4:54 pm)29.75 "Hg (Apr 25, 3:54 am)
Average63 °F64%30.09 "Hg
* Reported Apr 10 12:54 pm — Apr 25 12:54 pm, Charleston, Weather by CustomWeather, © 2017

Note: Actual official high and low records may vary slightly from our data, if they occured in-between our weather recording intervals... More about our weather records

Advertising

Charleston Weather History for the Previous 24 Hours

Scroll right to see more
 ConditionsComfort  
Time TempWeatherWind HumidityBarometerVisibility
12:54 pm
Tue, Apr 25
60 °FLow clouds.No wind80%29.78 "Hg10 mi
11:54 am58 °FLow clouds.3 mph87%29.79 "Hg10 mi
10:54 am56 °FMostly cloudy.3 mph90%29.80 "Hg7 mi
9:54 am54 °FLight rain. Fog.5 mph90%29.81 "Hg6 mi
8:54 am53 °FLight rain. Fog.No wind93%29.82 "Hg5 mi
7:54 am52 °FLight rain. Fog.No wind93%29.80 "Hg6 mi
7:32 am52 °FLight rain. Fog.No wind93%29.81 "Hg5 mi
6:54 am52 °FLight rain. Mostly cloudy.3 mph89%29.78 "Hg10 mi
5:54 am52 °FLight rain. Overcast.5 mph89%29.76 "Hg9 mi
4:54 am53 °FLight rain. Mostly cloudy.9 mph83%29.77 "Hg10 mi
3:54 am55 °FOvercast.8 mph74%29.75 "Hg10 mi
2:54 am55 °FOvercast.7 mph77%29.77 "Hg10 mi
1:54 am56 °FOvercast.5 mph77%29.80 "Hg10 mi
12:54 am57 °FOvercast.3 mph78%29.81 "Hg10 mi
11:54 pm
Mon, Apr 24
58 °FPassing clouds.7 mph75%29.81 "Hg10 mi
10:54 pm59 °FPassing clouds.3 mph75%29.83 "Hg10 mi
9:54 pm59 °FPassing clouds.5 mph78%29.83 "Hg10 mi
8:54 pm59 °FMostly cloudy.5 mph75%29.83 "Hg10 mi
7:54 pm61 °FPartly sunny.6 mph70%29.84 "Hg10 mi
6:54 pm61 °FMore clouds than sun.7 mph70%29.85 "Hg10 mi
5:54 pm62 °FMore clouds than sun.6 mph67%29.85 "Hg10 mi
5:23 pm62 °FMore clouds than sun.5 mph67%29.85 "Hg10 mi
4:54 pm62 °FOvercast.8 mph67%29.85 "Hg10 mi
4:24 pm62 °FMostly cloudy.7 mph70%29.86 "Hg10 mi
3:54 pm62 °FOvercast.9 mph67%29.86 "Hg10 mi
2:54 pm62 °FOvercast.5 mph70%29.88 "Hg10 mi
Weather by CustomWeather, © 2017

See weather overviewHow to use our weather pages